Weather History for Mount Pleasant, IA

Change the Weather History Date:

Monday, May 6, 2013

  Actual Average Record
Temperature  
Mean Temperature 66 °F -  
Max Temperature 79 °F 69 °F 87 °F (2004)
Min Temperature 54 °F 47 °F 30 °F (1989)
Cooling Degree Days 1    
Growing Degree Days 16 (Base 50)    
Moisture  
Dew Point 47 °F    
Average Humidity 52    
Maximum Humidity 78    
Minimum Humidity 22    
Precipitation  
Precipitation 0.01 in - - ()
Sea Level Pressure  
Sea Level Pressure 30.02 in    
Wind  
Wind Speed 4 mph (North)    
Max Wind Speed 12 mph    
Max Gust Speed -    
Visibility 10 miles    
Events      
Averages and records for this station are not official NWS values.
T = Trace of Precipitation, MM = Missing Value Source: NWS Daily Summary

Daily Weather History Graph

Daily Weather History Graph

Search for Another Location

Airport:

Trip Planner

Search our weather history database for the weather conditions in past years. The results will help you decide how hot, cold, wet, or windy it might be!

Date:

Astronomy

May. 06, 2013 Rise Set
Actual Time 5:57 AM CDT 8:08 PM CDT
Civil Twilight 5:27 AM CDT 8:38 PM CDT
Nautical Twilight 4:50 AM CDT 9:16 PM CDT
Astronomical Twilight 4:09 AM CDT 9:57 PM CDT
Moon 4:01 AM CDT (5/6) 5:07 PM CDT (5/6)
Length of Visible Light 15h 11m
Length of Day
14h 10m
Waning Crescent, 11% of the Moon is Illuminated
May 6
Waning Crescent
May 9
New
May 17
First Quarter
May 24
Full
May 31
Last Quarter

Hourly Weather History & Observations

Time (CDT) Temp. Dew Point Humidity Pressure Visibility Wind Dir Wind Speed Gust Speed Precip Events Conditions
12:15 AM 61.7 °F 49.1 °F 63% 30.01 in 10.0 mi Calm Calm - N/A   Clear
12:35 AM 62.1 °F 48.6 °F 61% 30.00 in 10.0 mi Calm Calm - N/A   Clear
12:55 AM 61.7 °F 48.7 °F 62% 30.00 in 10.0 mi Calm Calm - N/A   Clear
1:35 AM 59.2 °F 49.1 °F 69% 30.01 in 10.0 mi WNW 3.5 mph - N/A   Clear
1:55 AM 60.6 °F 48.9 °F 65% 30.01 in 10.0 mi Calm Calm - N/A   Clear
2:15 AM 58.5 °F 49.3 °F 72% 30.01 in 10.0 mi North 3.5 mph - N/A   Clear
2:35 AM 58.3 °F 50.0 °F 74% 30.02 in 10.0 mi North 3.5 mph - N/A   Scattered Clouds
2:55 AM 59.7 °F 49.1 °F 68% 30.02 in 10.0 mi Calm Calm - N/A   Mostly Cloudy
3:15 AM 58.8 °F 49.3 °F 71% 30.02 in 10.0 mi North 3.5 mph - N/A   Mostly Cloudy
3:35 AM 58.1 °F 49.1 °F 72% 30.02 in 10.0 mi NNW 4.6 mph - N/A   Scattered Clouds
3:55 AM 58.6 °F 49.3 °F 71% 30.02 in 10.0 mi North 3.5 mph - N/A   Clear
4:15 AM 57.6 °F 49.3 °F 74% 30.02 in 10.0 mi North 3.5 mph - N/A   Clear
4:35 AM 57.0 °F 48.9 °F 74% 30.02 in 10.0 mi North 4.6 mph - N/A   Clear
4:55 AM 55.8 °F 48.7 °F 77% 30.02 in 10.0 mi WNW 5.8 mph - N/A   Clear
5:15 AM 55.8 °F 48.0 °F 75% 30.02 in 10.0 mi NNW 5.8 mph - N/A   Clear
5:35 AM 54.7 °F 47.8 °F 78% 30.02 in 10.0 mi NNW 5.8 mph - N/A   Clear
5:55 AM 55.4 °F 48.4 °F 77% 30.03 in 10.0 mi NNW 5.8 mph - N/A   Clear
6:15 AM 54.9 °F 47.8 °F 77% 30.02 in 10.0 mi NNW 6.9 mph - N/A   Clear
6:35 AM 55.4 °F 48.4 °F 77% 30.03 in 10.0 mi NNW 6.9 mph - N/A   Clear
6:55 AM 56.5 °F 48.9 °F 76% 30.03 in 10.0 mi North 6.9 mph - N/A   Scattered Clouds
7:15 AM 58.1 °F 50.0 °F 74% 30.05 in 10.0 mi NNE 3.5 mph - N/A   Mostly Cloudy
7:35 AM 59.0 °F 51.1 °F 75% 30.04 in 10.0 mi NNW 6.9 mph - N/A   Overcast
7:55 AM 59.9 °F 50.7 °F 72% 30.06 in 10.0 mi North 5.8 mph - N/A   Scattered Clouds
8:15 AM 59.7 °F 51.3 °F 74% 30.06 in 10.0 mi North 5.8 mph - N/A   Scattered Clouds
8:35 AM 62.1 °F 52.7 °F 71% 30.06 in 10.0 mi North 6.9 mph - N/A   Mostly Cloudy
8:55 AM 63.1 °F 52.9 °F 69% 30.07 in 10.0 mi North 5.8 mph - N/A   Overcast
9:15 AM 63.9 °F 52.2 °F 66% 30.07 in 10.0 mi North 4.6 mph - N/A   Overcast
9:35 AM 65.3 °F 52.2 °F 62% 30.07 in 10.0 mi North 6.9 mph - N/A   Overcast
9:55 AM 66.4 °F 53.1 °F 62% 30.07 in 10.0 mi North 5.8 mph - N/A   Scattered Clouds
10:15 AM 68.9 °F 52.3 °F 55% 30.07 in 10.0 mi North 8.1 mph - N/A   Clear
10:35 AM 70.3 °F 52.2 °F 52% 30.07 in 10.0 mi North 6.9 mph - N/A   Clear
10:55 AM 71.8 °F 50.4 °F 47% 30.06 in 10.0 mi North 5.8 mph - N/A   Clear
11:15 AM 73.0 °F 46.9 °F 39% 30.06 in 10.0 mi North 8.1 mph - N/A   Clear
11:35 AM 74.5 °F 48.4 °F 40% 30.05 in 10.0 mi NNE 10.4 mph - N/A   Clear
11:55 AM 75.0 °F 46.0 °F 36% 30.04 in 10.0 mi NNE 10.4 mph - N/A   Clear
12:15 PM 75.6 °F 44.6 °F 33% 30.04 in 10.0 mi NE 9.2 mph - N/A   Clear
12:35 PM 76.5 °F 45.3 °F 33% 30.03 in 10.0 mi North 10.4 mph - N/A   Clear
12:55 PM 75.0 °F 45.7 °F 35% 30.03 in 10.0 mi NNE 8.1 mph - N/A   Scattered Clouds
1:15 PM 75.7 °F 44.1 °F 32% 30.02 in 10.0 mi NE 8.1 mph - N/A   Scattered Clouds
1:35 PM 77.0 °F 41.7 °F 28% 30.02 in 10.0 mi North 11.5 mph - N/A   Scattered Clouds
1:55 PM 77.4 °F 43.0 °F 29% 30.02 in 10.0 mi North 9.2 mph - N/A   Scattered Clouds
2:15 PM 78.6 °F 40.1 °F 25% 30.01 in 10.0 mi NNE 4.6 mph - N/A   Scattered Clouds
2:35 PM 78.1 °F 36.5 °F 22% 30.01 in 10.0 mi NE 6.9 mph - N/A   Scattered Clouds
2:55 PM 77.0 °F 40.3 °F 27% 30.01 in 10.0 mi North 9.2 mph - N/A   Mostly Cloudy
3:15 PM 76.6 °F 37.9 °F 25% 30.00 in 10.0 mi Calm Calm - N/A   Mostly Cloudy
3:35 PM 77.0 °F 41.9 °F 28% 30.00 in 10.0 mi NNE 6.9 mph - N/A   Overcast
3:55 PM 77.0 °F 38.5 °F 25% 30.00 in 10.0 mi North 4.6 mph - N/A   Overcast
4:15 PM 77.0 °F 39.4 °F 26% 29.99 in 10.0 mi North 6.9 mph - N/A   Overcast
4:35 PM 77.0 °F 39.4 °F 26% 29.99 in 10.0 mi North 4.6 mph - N/A   Overcast
4:55 PM 76.1 °F 42.1 °F 30% 29.99 in 10.0 mi North 8.1 mph - N/A   Overcast
5:15 PM 75.4 °F 45.5 °F 34% 29.99 in 10.0 mi North 6.9 mph - N/A   Overcast
5:55 PM 74.8 °F 46.9 °F 37% 29.99 in 10.0 mi North 5.8 mph - N/A   Overcast
6:15 PM 74.5 °F 48.9 °F 40% 29.99 in 10.0 mi North 4.6 mph - N/A   Overcast
6:35 PM 74.3 °F 50.4 °F 43% 29.99 in 10.0 mi North 4.6 mph - N/A   Overcast
6:55 PM 75.2 °F 49.6 °F 41% 29.99 in 10.0 mi North 4.6 mph - N/A   Overcast
7:15 PM 74.3 °F 48.6 °F 40% 29.99 in 10.0 mi North 4.6 mph - N/A   Overcast
7:35 PM 72.1 °F 50.0 °F 46% 30.00 in 10.0 mi NNW 4.6 mph - N/A   Mostly Cloudy
7:55 PM 71.8 °F 48.2 °F 43% 30.00 in 10.0 mi NNW 4.6 mph - N/A   Scattered Clouds
8:15 PM 71.1 °F 47.1 °F 42% 30.00 in 10.0 mi NNW 4.6 mph - N/A   Clear
8:35 PM 70.7 °F 46.8 °F 42% 30.00 in 10.0 mi NW 3.5 mph - N/A   Clear
8:55 PM 69.8 °F 46.6 °F 43% 30.00 in 10.0 mi NNW 4.6 mph - N/A   Clear
9:15 PM 69.1 °F 46.0 °F 44% 30.01 in 10.0 mi NW 4.6 mph - N/A   Scattered Clouds
9:35 PM 68.5 °F 45.0 °F 43% 30.02 in 10.0 mi NW 4.6 mph - N/A   Scattered Clouds
9:55 PM 68.4 °F 43.7 °F 41% 30.02 in 10.0 mi NW 4.6 mph - N/A   Clear
10:15 PM 67.5 °F 44.6 °F 44% 30.02 in 10.0 mi NNW 5.8 mph - N/A   Clear
10:35 PM 67.1 °F 44.8 °F 45% 30.02 in 10.0 mi NNW 5.8 mph - N/A   Clear
10:55 PM 64.4 °F 46.6 °F 52% 30.02 in 10.0 mi North 4.6 mph - N/A   Clear
11:15 PM 66.2 °F 45.7 °F 48% 30.02 in 10.0 mi NNW 5.8 mph - N/A   Clear
11:35 PM 64.6 °F 46.9 °F 53% 30.02 in 10.0 mi North 4.6 mph - N/A   Clear
11:55 PM 66.0 °F 46.8 °F 50% 30.02 in 10.0 mi North 4.6 mph - N/A   Clear